Kbely Air Base

Jump to: basic info | weather | frequencies | runways | comments

Related pages: nearby airports | nearby navaids | notams | map

Basic information (top)

Codes: LKKB
Location: lon 50.121399, lat 14.543600, elev 939 ft / 286 m msl
Status: medium_airport

Weather (top)

Current conditions (rec'd 2014/11/27 16:00Z):

LKKB 271600Z 11009KT 9999 BKN016 OVC020 02/M01 Q1014 NOSIG

Airport forecast (rec'd 2014/11/24 18:00Z):

TAF LKKB 241700Z 2418/2518 01004KT 4500 BR -RA OVC020 
      BECMG 2420/2422 VRB02KT 3500 BR SCT010 OVC015 
      TEMPO 2502/2510 1500 BR BKN008 PROB30 
      TEMPO 2504/2509 0800 -DZ FG OVC002 
      BECMG 2509/2511 09006KT

Frequencies (top)

Verify before use: may be inaccurate or out of date.

APP: 124.675 MHz (APP)
GCA: 123.3 MHz (PRECISION)
TWR: 120.875 MHz (TWR)

Runways (top)

06/24: 6,562 x 148 ft (2,000 x 45 m) — paved — lighted

Latest comments (top)

No comments yet for Kbely Air Base

More... (top)

See also NOTAMs and nearby airports and navaids, or visit the Kbely Air Base page at the main OurAirports website..